www.pogodaiklimat.ru

Архив погоды в Салехарде (Ямало-Ненецкий АО, Россия)

Время
(UTC), дата
09 17.01
12 17.01
15 17.01
18 17.01
21 17.01
00 18.01
03 18.01
06 18.01
09 18.01
12 18.01
15 18.01
18 18.01
21 18.01
00 19.01
03 19.01
06 19.01
09 19.01
12 19.01
15 19.01
18 19.01
21 19.01
00 20.01
03 20.01
06 20.01
09 20.01
12 20.01
15 20.01
18 20.01
21 20.01
00 21.01
03 21.01
06 21.01
09 21.01
12 21.01
15 21.01
18 21.01
21 21.01
00 22.01
03 22.01
06 22.01
09 22.01
12 22.01
15 22.01
18 22.01
21 22.01
00 23.01
03 23.01
06 23.01
09 23.01
12 23.01
15 23.01
18 23.01
21 23.01
00 24.01
03 24.01
Ветер
(напр.,м/с)
Видим. Явления Облачность Т
(С)
Тd
(С)
f
(%)
Тe
(С)
Тes
(С)
Комфортность P
(гПа)
Po
(гПа)
Тmin
(С)
Tmax
(С)
R
(мм)
R24
(мм)
S
(см)
С 5
{10}
2000 м снег [диам. изморози 0 мм] 10/10 120 м
[Ns]
-14.1 -16.4 83 -23 -23 по сезону 984.0 981.8
С 3
{12}
2000 м снег 10/10 120 м
[Ns]
-12.3 -14.5 84 -18 -18 по сезону 984.0 981.9
СЗ 1 4000 м слаб. снег {метель} 10/10 120 м
[Ns]
-12.5 -14.6 84 -15 -15 тепло 984.8 982.7 -11.8 3
СЗ 1 2000 м снег {метель} 10/0
[Cs]
-13.2 -15.4 83 -16 -16 по сезону 986.2 984.1
СЗ 3 4000 м слаб. снег 10/0
[Cs]
-13.7 -16.1 82 -20 -20 по сезону 988.4 986.3
З 1 4000 м слаб. снег 10/10 120 м
[Ns]
-14.1 -16.4 83 -17 -17 по сезону 990.6 988.5 -11.8 3
ЮВ 1 4000 м слаб. снег 10/0
[Cs]
-18.6 -21.3 79 -21 -21 по сезону 992.2 990.0 -18.6 2 59
Ю 1 20 км {снег} 8/0
[Ac trans Ci fib]
-24.0 -27.3 74 -27 -27 холодно 994.2 992.0 -24.1
штиль 0 20 км 5/0
[Ac trans Ci fib]
-24.0 -27.4 73 -24 -24 по сезону 995.7 993.5
Ю 2 10 км 3/0
[Ci fib]
-26.6 -30.2 71 -34 -34 опасность
обморожения
997.7 995.5
Ю 2 10 км 3/0
[Ci fib]
-26.7 -30.3 71 -34 -34 опасность
обморожения
997.9 995.6 -18.6 0.0
Ю 1 10 км ясно -28.0 -31.8 70 -32 -32 опасность
обморожения
998.5 996.2
Ю 1 10 км 10/0
[Cs]
-28.8 -32.7 69 -33 -33 опасность
обморожения
998.1 995.8
Ю 1 10 км 10/5 330 м
[St Cs]
-28.4 -32.3 69 -32 -32 опасность
обморожения
998.3 996.1
Ю 1 10 км 10/0
[Ac trans]
-26.7 -30.4 71 -30 -30 очень
холодно
999.0 996.8 -29.2 59
Ю 2 20 км 10/8 1000 м
[Sc Ac trans]
-24.1 -27.3 75 -31 -31 опасность
обморожения
999.2 997.0
ЮЗ 1 20 км 8/0
[Ac trans Ci fib]
-21.8 -24.9 76 -25 -25 холодно 999.6 997.4
ЮЗ 1 10 км 10/5 1000 м
[Sc diur, vesp Ac trans]
-21.3 -24.3 77 -24 -24 прохладно 1000.8 998.6
Ю 2 10 км {ливн. снег} 10/8 570 м
[Sc Ac und]
-20.1 -23.0 78 -26 -26 холодно 1001.1 998.9 -20.1 0.0
Ю 2 10 км {ливн. снег} 10/5 1440 м
[Sc diur, vesp Ac trans]
-17.8 -20.4 80 -23 -23 прохладно 1001.3 999.1
Ю 2 10 км 8/0
[Ac trans Ci fib]
-17.6 -20.2 80 -23 -23 прохладно 1001.9 999.8
Ю 1 10 км 5/0
[Ci fib]
-19.1 -21.9 78 -22 -22 по сезону 1002.1 999.9
ЮЗ 1 10 км [диам. изморози 4 мм] 10/0
[Ac trans Cs]
-18.6 -21.3 79 -21 -21 по сезону 1001.4 999.2 -20.1 0.0 58
Ю 2 20 км 8/0
[Ac trans Ci fib]
-16.6 -19.2 80 -22 -22 по сезону 1001.2 999.1
Ю 2 20 км 9/0
[Ac trans Ci fib]
-16.3 -18.8 81 -22 -22 по сезону 1001.6 999.4
Ю 2 10 км 10/3 1000 м
[Sc diur, vesp Ac trans Ci fib]
-14.3 -16.7 82 -19 -19 тепло 1001.7 999.5
Ю 2 10 км [диам. изморози 10 мм] 10/4 1000 м
[Sc diur, vesp Ac trans Ci fib]
-13.8 -16.1 83 -19 -19 тепло 1002.4 1000.3 -13.8
Ю 2 10 км 10/0
[Ac trans Ci fib]
-13.8 -16.0 83 -19 -19 по сезону 1002.5 1000.4
Ю 4 10 км 10/5 1000 м
[Sc diur, vesp Ac trans Ci fib]
-8.9 -10.7 87 -16 -16 тепло 1003.0 1000.9
ЮЗ 4
{11}
10 км позёмок {метель} [диам. изморози 0 мм] 10/0
[Ac trans Ci fib]
-8.3 -10.6 83 -15 -15 тепло 1003.8 1001.7
Ю 5
{11}
10 км позёмок {метель} 10/5 450 м
[Cb calv Ac trans Ci fib]
-9.8 -12.2 83 -18 -18 тепло 1004.8 1002.7 -14.7 57
Ю 5
{10}
20 км {метель} 10/6 420 м
[Cb calv Ac trans Ci fib]
-9.9 -12.6 81 -18 -18 тепло 1006.5 1004.4
Ю 3
{10}
10 км слаб. ливневой снег {метель} 10/10 400 м
[Cb calv]
-9.4 -12.0 81 -15 -15 тепло 1008.0 1005.9
Ю 3 10 км {ливн. снег, снег} 10/4 1000 м
[Sc diur, vesp Ac trans]
-10.1 -12.5 83 -16 -16 тепло 1009.6 1007.5
ЮЗ 4 10 км 10/6 1500 м
[Sc diur, vesp Ac trans]
-9.9 -12.5 81 -17 -17 тепло 1010.7 1008.6 -9.4 0.2
ЮЗ 2 10 км 10/6 800 м
[Sc diur, vesp Ac trans]
-10.0 -12.0 85 -15 -15 тепло 1012.0 1009.9
Ю 4 10 км 10/6 420 м
[Cb calv Ac trans]
-9.2 -11.3 85 -16 -16 тепло 1013.1 1011.0
Ю 3 10 км {ливн. снег} 10/5 420 м
[Cb calv Ac trans]
-8.1 -10.3 84 -14 -14 тепло 1014.1 1012.0
Ю 2 10 км 10/10 800 м
[Cb calv]
-8.8 -10.8 85 -13 -13 тепло 1014.9 1012.8 -11.1 0.0 56
ЮЗ 2 20 км 10/0
[Ac trans Ci sp]
-9.0 -11.0 85 -13 -13 тепло 1016.1 1014.0
ЮЗ 2 20 км в посл. час ливневой снег 10/6 1110 м
[Sc diur, vesp Ac trans]
-8.0 -10.3 83 -12 -12 тепло 1017.8 1015.6
Ю 2 10 км {ливн. снег} 10/8 1170 м
[Sc Ac trans]
-8.9 -11.1 84 -13 -13 тепло 1019.4 1017.2
Ю 2 10 км 8/4 1000 м
[Sc Ac trans]
-9.4 -11.4 85 -14 -14 тепло 1021.0 1018.8 -8.0 0.2
З 1 10 км 5/0
[Ac trans]
-9.4 -11.3 86 -12 -12 тепло 1022.3 1020.1
ЮЗ 2 10 км 3/0
[Ac trans]
-9.3 -11.4 85 -14 -14 тепло 1023.7 1021.6
Ю 1 10 км 3/0
[Ci fib]
-11.2 -13.0 87 -13 -13 тепло 1025.1 1022.9
штиль 0 10 км [диам. изморози 1 мм] 3/0
[Ac trans Ci fib]
-15.2 -17.4 83 -15 -15 тепло 1026.4 1024.2 -16.3 56
Ю 1 20 км 6/0
[Ac trans Ci fib]
-14.9 -17.0 84 -17 -17 тепло 1027.8 1025.5
Ю 1 20 км [диам. изморози 3 мм] 3/0
[Ci fib]
-15.5 -17.9 82 -18 -18 тепло 1028.5 1026.3
Ю 1 10 км 8/0
[Ac trans Ci fib]
-17.6 -20.2 80 -20 -20 по сезону 1028.6 1026.3
Ю 2 1000 м дымка [диам. изморози 10 мм] 10/10 90 м
[St]
-17.9 -20.5 80 -23 -23 по сезону 1028.6 1026.4 -12.9
Ю 1 10 км [диам. изморози 15 мм] 10/10 150 м
[St]
-18.5 -21.2 79 -21 -21 по сезону 1028.8 1026.5
ЮЗ 1 1000 м дымка [диам. изморози 17 мм] 10/10 90 м
[St]
-17.9 -20.5 80 -21 -21 по сезону 1028.5 1026.3
ЮЗ 1 4000 м снежные зёрна [диам. изморози 20 мм] 10/10 90 м
[St]
-18.0 -20.7 79 -21 -21 по сезону 1027.2 1025.0
Ю 1 2000 м снежные зёрна [диам. изморози 23 мм] 10/10 90 м
[St]
-17.6 -20.2 80 -20 -20 по сезону 1026.5 1024.2 -18.9 0.3 56
Местоположение метеостанции Салехард (Ямало-Ненецкий АО, Россия): широта 66.53 долгота 66.67 высота над уровнем моря 16 м.
В архиве по умолчанию представлена погода в Салехарде за последнюю неделю. Архивные данные за месяц целиком и за предыдущие месяцы, начиная с января 2011 года, Вы можете получить, выбрав интересующий диапазон дат из раскрывающегося списка и нажав кнопку "Найти!".
*Определитесь, кто Вы:
Внимание! Время в таблицах - всемирное. Для получения местного времени необходимо прибавить поправку, которая равна 5 ч.
Смотрите также архив погоды в соседних городах и на ближайших метеорологических станциях:
Партнеры нашего сайта:      
Пояснения к столбцам:
  • Ветер - указаны скорость ветра в м/с - средняя за 10 мин, порывы в срок и между сроками (в фигурных скобках) и направление, откуда дует ветер: С - северный,
  • СВ - северо-восточный, В - восточный, ЮВ - юго-восточный, Ю - южный, ЮЗ - юго-западный, З - западный, СЗ - северо-западный.
  • Видимость - горизонтальная дальность видимости в метрах или километрах. При видимости от 1 до 10 км при отсутствии осадков обычно наблюдается дымка, при ухудшении видимости до 1 км и менее - туман. В сухую погоду видимость может ухудшаться дымом, пылью или мглою.
  • Явления - указаны атмосферные явления, наблюдавшиеся в срок или в последний час перед сроком; фигурными скобками обозначены явления, наблюдавшиеся между сроками (за 1-3 часа до срока); квадратными скобками обозначены град или гололедные отложения с указанием их диаметра в мм.
  • Облачность - указаны через наклонную черту общая и нижняя облачность в баллах и высота нижней границы облаков в метрах; квадратными скобками обозначены формы облаков: Ci - перистые, Cs - перисто-слоистые, Cc - перисто-кучевые, Ac - высококучевые, As - высокослоистые, Sc - слоисто-кучевые, Ns - слоисто-дождевые, Cu - кучевые, Cb - кучево-дождевые. Подробнее классификацию облаков см. в Атласе облаков (PDF).
  • T - Температура воздуха - температура, измеренная на высоте 2 м над землей.
  • Td - Температура точки росы - температура, при понижении до которой содержащийся в воздухе водяной пар достигнет насыщения.
  • f - Относительная влажность воздуха - влажноcть воздуха, измеренная на высоте 2 м над землей.
  • Te - Эффективная температура - температура, которую ощущает одетый по сезону человек в тени. Характеристика душности погоды. При расчете учитывается влияние влажности воздуха и скорости ветра на теплоощущения человека.
  • Tes - Эффективная температура на солнце - температура, которую ощущает человек, с поправкой на солнечный нагрев. Характеристика знойности погоды. Зависит от высоты солнца над горизонтом, облачности и скорости ветра. Ночью, в пасмурную погоду, а также при ветре 12 м/с и более поправка равна нулю.
  • P - Атмосферное давление - приведенное к уровню моря атмосферное давление.
  • Po - Атмосферное давление - измеренное на уровне метеостанции атмосферное давление.
  • Tmin - Минимальная температура - минимум температуры воздуха на высоте 2 м над землей.
  • Tmax - Максимальная температура - максимум температуры воздуха на высоте 2 м над землей.
  • R - Количество осадков - Количество выпавших осадков за период времени, мм. При наведении курсора мыши на число - период времени, за который выпало указанное количество осадков.
  • R24 - Количество осадков - Количество выпавших осадков за 24 часа, мм.
  • S - Снежный покров - Высота снежного покрова, см. При наведении курсора мыши на число - состояние снежного покрова и степень покрытия местности в баллах.